Weather reports worldwide

Advertisment
Don Benito, Spain (8333): temperature & dewpoint: 09.08.2020 21:00:00 - 15.08.2020 21:00:00 (CEST)Don Benito, Spain (8333): wind speed & gusts: 09.08.2020 21:00:00 - 15.08.2020 21:00:00 (CEST)Don Benito, Spain (8333): wind direction: 09.08.2020 21:00:00 - 15.08.2020 21:00:00 (CEST)Don Benito, Spain (8333): reduced air pressure: 09.08.2020 21:00:00 - 15.08.2020 21:00:00 (CEST)Don Benito, Spain (8333): visibility: 09.08.2020 21:00:00 - 15.08.2020 21:00:00 (CEST)Don Benito, Spain (8333): sunshine duration: 09.08.2020 21:00:00 - 15.08.2020 21:00:00 (CEST)Don Benito, Spain (8333): precipitation: 09.08.2020 21:00:00 - 15.08.2020 21:00:00 (CEST)
Date & Time tt [°C] td [°C] ff [km/h] ff [kn] fx [km/h] fx [kn] dd ppp [hPa] vv [km] sd [min] rr [mm]
15.08.2020 21:00:00 25,8 6,8 10 6 29 15 WSW 1013,5 20 20 0,0
15.08.2020 20:00:00 28,4 6,4 16 9 32 17 WSW 1012,9 20 60 -
15.08.2020 19:00:00 29,5 6,8 16 8 30 16 WSW 1012,8 20 60 0,0
15.08.2020 18:00:00 30,0 6,5 14 7 29 16 WSW 1012,9 20 60 0,0
15.08.2020 17:00:00 29,9 5,9 15 8 29 15 WSW 1013,3 20 60 0,0
15.08.2020 16:00:00 29,0 7,6 14 7 29 16 WSW 1014,1 20 60 0,0
15.08.2020 15:00:00 28,1 7,3 11 6 26 14 WSW 1014,8 20 60 0,0
15.08.2020 14:00:00 26,6 8,5 9 5 24 13 WSW 1015,3 20 60 -
15.08.2020 13:00:00 23,6 10,3 11 6 22 12 WSW 1016,1 20 60 0,0
15.08.2020 12:00:00 21,3 11,3 8 4 21 12 W 1016,3 20 60 0,0
15.08.2020 11:00:00 19,2 11,4 9 5 22 12 WSW 1016,8 20 56 0,0
15.08.2020 10:00:00 16,9 11,8 9 5 17 9 W 1016,9 20 0 0,0
15.08.2020 09:00:00 16,1 12,2 6 3 16 8 WSW 1016,6 20 13 0,0
15.08.2020 08:00:00 14,8 11,0 3 2 10 5 WSW 1016,2 20 0 -
15.08.2020 07:00:00 15,6 11,3 4 2 14 8 SW 1015,6 20 0 0,0
15.08.2020 06:00:00 16,7 10,8 5 3 16 8 SW 1015,5 20 0 0,0
15.08.2020 05:00:00 17,6 10,8 9 5 20 11 SW 1015,4 20 0 0,0
15.08.2020 04:00:00 18,4 10,5 8 5 19 11 SSW 1015,2 20 0 0,0
15.08.2020 03:00:00 19,6 10,0 9 5 21 11 WSW 1015,2 20 0 0,0
15.08.2020 02:00:00 20,5 10,3 8 5 18 10 SW 1015,0 20 0 -
15.08.2020 01:00:00 21,6 8,5 6 4 14 8 WSW 1014,5 20 0 0,0
15.08.2020 00:00:00 22,5 6,2 5 3 10 5 SW 1013,9 20 0 0,0
14.08.2020 23:00:00 24,1 5,5 3 1 9 5 WSW 1013,4 20 0 0,0
14.08.2020 22:00:00 25,6 4,6 5 3 11 6 WSW 1012,4 20 0 0,0
14.08.2020 21:00:00 28,5 3,4 4 2 15 8 WSW 1011,5 20 20 0,0
14.08.2020 20:00:00 31,3 0,6 10 5 22 12 W 1011,1 20 60 -
14.08.2020 19:00:00 32,9 0,9 9 5 24 13 W 1011,1 20 60 0,0
14.08.2020 18:00:00 33,3 0,0 11 6 23 13 W 1011,3 20 60 0,0
14.08.2020 17:00:00 32,9 -1,4 11 6 26 14 W 1011,8 20 60 0,0
14.08.2020 16:00:00 32,1 7,0 10 5 22 12 W 1012,4 20 60 0,0
14.08.2020 15:00:00 30,7 7,1 10 5 22 12 W 1013,2 20 60 0,0
14.08.2020 14:00:00 29,6 8,1 8 5 18 10 W 1013,6 20 60 -
14.08.2020 13:00:00 26,7 9,9 8 5 17 9 W 1014,4 20 60 0,0
14.08.2020 12:00:00 25,0 10,9 7 4 17 9 WSW 1014,7 20 60 0,0
14.08.2020 11:00:00 21,8 12,6 9 5 17 9 W 1015,2 20 60 0,0
14.08.2020 10:00:00 19,9 12,8 6 3 20 11 W 1015,3 20 60 0,0
14.08.2020 09:00:00 17,3 13,3 7 4 17 9 W 1015,5 20 35 0,0
14.08.2020 08:00:00 16,5 12,2 8 4 14 8 WSW 1015,4 20 0 -
14.08.2020 07:00:00 17,2 12,1 9 5 18 10 WSW 1014,9 20 0 0,0
14.08.2020 06:00:00 18,1 11,9 8 4 16 9 SW 1014,9 20 0 0,0
14.08.2020 05:00:00 18,9 11,2 9 5 18 10 WSW 1014,9 20 0 0,0
14.08.2020 04:00:00 20,0 10,4 10 5 18 10 WSW 1014,9 20 0 0,0
14.08.2020 03:00:00 21,0 10,2 9 5 16 9 SW 1015,1 20 0 0,0
14.08.2020 02:00:00 22,4 9,6 9 5 16 9 WSW 1015,2 20 0 -
14.08.2020 01:00:00 23,0 8,3 6 4 12 7 SW 1014,7 20 0 0,0
14.08.2020 00:00:00 24,5 10,4 5 3 11 6 WSW 1014,0 20 0 0,0
13.08.2020 23:00:00 26,5 9,3 4 2 7 4 SSW 1013,6 20 0 0,0
13.08.2020 22:00:00 27,6 9,4 2 1 8 4 WSW 1013,0 20 0 0,0
13.08.2020 21:00:00 30,3 8,1 4 2 10 5 W 1012,4 20 20 0,0
13.08.2020 20:00:00 32,4 8,0 4 2 12 7 NNW 1012,0 20 60 -
13.08.2020 19:00:00 33,1 4,8 4 2 16 9 NNW 1012,2 20 60 0,0
13.08.2020 18:00:00 33,2 5,6 6 3 19 11 NNW 1012,4 20 60 0,0
13.08.2020 17:00:00 32,0 8,9 8 4 18 10 N 1012,9 20 60 0,0
13.08.2020 16:00:00 31,7 9,3 6 4 18 10 WNW 1013,8 20 60 0,0
13.08.2020 15:00:00 31,8 9,9 6 3 21 11 N 1014,1 20 60 0,0
13.08.2020 14:00:00 30,6 9,4 6 3 12 6 W 1014,8 20 60 -
13.08.2020 13:00:00 28,8 13,1 4 2 10 6 NNE 1015,4 20 60 0,0
13.08.2020 12:00:00 27,2 13,2 3 2 11 6 NNW 1015,7 20 60 0,0
13.08.2020 11:00:00 23,7 14,4 6 3 15 8 W 1015,9 20 60 0,0
13.08.2020 10:00:00 21,8 14,7 10 5 16 9 WSW 1015,9 20 60 0,0
13.08.2020 09:00:00 19,3 14,8 6 4 13 7 WSW 1015,9 20 35 0,0
13.08.2020 08:00:00 18,0 14,1 3 2 9 5 SW 1015,4 18 0 -
13.08.2020 07:00:00 18,2 13,7 5 3 10 5 SW 1015,1 18 0 0,0
13.08.2020 06:00:00 19,1 13,8 6 3 13 7 SW 1014,8 20 0 0,0
13.08.2020 05:00:00 19,4 12,6 5 3 11 6 SW 1014,9 20 0 0,0
13.08.2020 04:00:00 20,4 12,3 4 2 9 5 WSW 1014,8 20 0 0,0
13.08.2020 03:00:00 20,9 12,1 5 3 8 4 SSW 1014,8 20 0 0,0
13.08.2020 02:00:00 21,2 12,6 3 1 8 5 SSW 1014,8 20 0 -
13.08.2020 01:00:00 21,7 12,2 5 3 10 5 SSW 1014,7 20 0 0,0
13.08.2020 00:00:00 22,4 12,6 5 3 10 6 SSW 1014,8 20 0 0,0
12.08.2020 23:00:00 23,1 12,7 6 3 10 5 W 1014,4 20 0 0,0
12.08.2020 22:00:00 24,2 12,2 4 2 11 6 WSW 1013,8 20 0 0,0
12.08.2020 21:00:00 26,3 10,9 6 3 18 10 W 1013,0 20 21 0,0
12.08.2020 20:00:00 28,2 9,4 9 5 23 13 W 1012,7 20 60 -
12.08.2020 19:00:00 29,0 10,6 10 5 24 13 WNW 1012,6 20 60 0,0
12.08.2020 18:00:00 29,3 11,3 10 5 24 13 W 1012,8 20 60 0,0
12.08.2020 17:00:00 28,7 11,7 7 4 17 9 WNW 1013,2 20 59 0,0
12.08.2020 16:00:00 28,5 13,2 7 4 17 9 NNW 1013,6 20 60 0,0
12.08.2020 15:00:00 28,1 12,8 6 3 16 9 W 1014,2 20 60 0,0
12.08.2020 14:00:00 25,9 14,0 8 4 15 8 WSW 1014,8 20 50 -
12.08.2020 13:00:00 25,1 14,2 4 2 13 7 W 1015,3 20 60 0,0
12.08.2020 12:00:00 22,8 15,3 3 2 11 6 NW 1015,5 20 19 0,0
12.08.2020 11:00:00 21,0 15,5 6 3 14 8 SW 1015,5 17 0 0,0
12.08.2020 10:00:00 20,0 15,9 6 3 18 10 W 1015,2 18 26 0,0
12.08.2020 09:00:00 18,7 16,0 7 4 16 8 SW 1014,7 15 34 0,0
12.08.2020 08:00:00 17,8 15,4 7 4 21 11 SW 1014,5 12 0 -
12.08.2020 07:00:00 18,1 15,3 9 5 14 8 SW 1013,8 16 0 0,0
12.08.2020 06:00:00 18,6 15,3 7 4 10 6 SSW 1013,4 17 0 0,0
12.08.2020 05:00:00 19,1 15,3 6 3 11 6 SW 1012,9 20 0 0,0
12.08.2020 04:00:00 20,1 15,5 5 3 9 5 SW 1012,4 20 0 0,0
12.08.2020 03:00:00 21,2 15,3 6 4 11 6 E 1012,4 20 0 0,0
12.08.2020 02:00:00 20,9 15,4 3 2 10 5 E 1012,4 20 0 -
12.08.2020 01:00:00 21,4 16,4 2 1 17 9 NE 1012,0 20 0 0,0
12.08.2020 00:00:00 22,4 16,4 10 5 21 11 SSE 1011,9 20 0 0,0
11.08.2020 23:00:00 23,3 16,6 10 5 23 13 SE 1011,3 20 0 0,0
11.08.2020 22:00:00 23,0 17,5 4 2 17 9 E 1010,6 20 0 0,0
11.08.2020 21:00:00 24,3 16,3 6 3 22 12 E 1009,5 20 21 0,0
11.08.2020 20:00:00 24,5 20,0 7 4 16 8 ESE 1009,2 20 14 -
11.08.2020 19:00:00 24,5 20,2 5 3 26 14 W 1009,2 15 0 2,6
11.08.2020 18:00:00 27,9 15,2 12 7 37 20 E 1008,3 20 25 0,0
11.08.2020 17:00:00 30,5 15,8 18 10 39 21 E 1008,7 19 35 0,0
11.08.2020 16:00:00 32,7 14,3 6 4 18 10 N 1008,5 20 60 0,0
11.08.2020 15:00:00 31,3 15,3 8 5 19 10 N 1008,6 20 60 0,0
11.08.2020 14:00:00 30,5 15,3 8 5 23 12 N 1009,9 18 60 -
11.08.2020 13:00:00 30,0 14,5 7 4 16 9 NE 1010,1 20 45 0,0
11.08.2020 12:00:00 27,5 12,3 5 3 13 7 NE 1010,5 20 44 0,0
11.08.2020 11:00:00 23,1 10,2 5 3 9 5 SE 1010,7 19 8 0,0
11.08.2020 10:00:00 20,9 12,3 3 1 9 5 WNW 1010,6 20 12 0,0
11.08.2020 09:00:00 20,8 12,5 5 3 13 7 WSW 1010,2 20 31 0,0
11.08.2020 08:00:00 20,7 12,1 5 3 15 8 SW 1010,4 20 0 -
11.08.2020 07:00:00 21,1 12,0 6 3 13 7 WSW 1010,2 20 0 0,0
11.08.2020 06:00:00 21,3 12,2 5 3 14 7 WSW 1009,9 20 0 0,0
11.08.2020 05:00:00 22,2 12,4 5 3 13 7 WSW 1009,8 20 0 0,0
11.08.2020 04:00:00 23,1 12,4 6 3 12 6 WSW 1009,8 20 0 0,0
11.08.2020 03:00:00 24,6 11,2 5 3 16 9 WSW 1010,2 20 0 0,0
11.08.2020 02:00:00 25,3 10,3 6 3 14 8 SW 1010,1 20 0 -
11.08.2020 01:00:00 26,0 9,3 4 2 15 8 SW 1009,6 20 0 0,0
11.08.2020 00:00:00 26,9 9,7 8 5 17 9 SW 1009,3 20 0 0,0
10.08.2020 23:00:00 28,2 8,9 7 4 13 7 WSW 1008,7 20 0 0,0
10.08.2020 22:00:00 30,0 10,5 4 2 14 8 WSW 1007,6 20 0 0,0
10.08.2020 21:00:00 32,7 11,8 6 4 16 8 WSW 1006,5 20 22 0,0
10.08.2020 20:00:00 35,2 12,2 6 4 17 9 W 1005,9 20 60 -
10.08.2020 19:00:00 36,1 11,7 8 4 15 8 WNW 1006,0 20 60 0,0
10.08.2020 18:00:00 35,6 11,9 8 4 16 9 NW 1006,4 20 60 0,0
10.08.2020 17:00:00 35,6 11,2 7 4 20 11 NNW 1007,0 20 60 0,0
10.08.2020 16:00:00 35,2 11,6 6 4 14 8 NNW 1007,8 16 60 0,0
10.08.2020 15:00:00 33,4 13,0 8 4 16 9 NW 1008,8 20 60 0,0
10.08.2020 14:00:00 31,7 13,0 6 3 16 9 NW 1009,7 20 60 -
10.08.2020 13:00:00 28,6 13,3 6 4 12 7 NNW 1010,7 20 60 0,0
10.08.2020 12:00:00 27,3 12,1 4 2 14 8 N 1011,4 20 60 0,0
10.08.2020 11:00:00 24,0 12,3 3 2 11 6 NNW 1011,6 20 60 0,0
10.08.2020 10:00:00 21,8 14,4 3 2 11 6 W 1011,8 20 60 0,0
10.08.2020 09:00:00 19,6 14,2 5 3 12 7 WSW 1011,8 20 25 0,0
10.08.2020 08:00:00 18,9 13,6 7 4 16 9 WSW 1011,6 20 0 -
10.08.2020 07:00:00 19,9 12,8 6 3 15 8 SW 1011,3 20 0 0,0
10.08.2020 06:00:00 20,7 13,2 5 3 14 7 SW 1011,1 20 0 0,0
10.08.2020 05:00:00 21,7 12,5 6 3 16 9 WSW 1011,2 20 0 0,0
10.08.2020 04:00:00 22,4 12,6 7 4 13 7 WSW 1011,2 20 0 0,0
10.08.2020 03:00:00 23,5 13,4 4 2 13 7 SW 1011,5 20 0 0,0
10.08.2020 02:00:00 24,7 13,6 4 2 9 5 SW 1011,5 20 0 -
10.08.2020 01:00:00 26,7 10,8 5 3 13 7 SW 1011,3 20 0 0,0
10.08.2020 00:00:00 28,4 10,2 8 4 16 8 WSW 1011,0 20 0 0,0
09.08.2020 23:00:00 29,2 11,7 3 2 9 5 W 1010,9 20 0 0,0
09.08.2020 22:00:00 31,5 11,3 4 2 11 6 WSW 1009,9 20 0 0,0
09.08.2020 21:00:00 33,5 10,8 5 3 10 5 W 1009,3 20 8 0,0

tt = temperature
td = dewpoint
ff = wind speed
fx = gusts
dd = wind direction
ppp = reduced air pressure
vv = visibility
sd = sunshine duration
rr = precipitation

Next stations